RH
90 90 90 86 82 84 88 93 97 96 95 99 101 100 100 100 100 100 100 98 96 95 90 83 81 85 91 91 90 93 97 100 100 101 99 95 94 94 96 96 94 96 99 92 83 82 84 83 83 82 82 78 75 82 86 82 80 78 78 79 81 89 97 98 96 98 100 100 100 100 100 99 99 99 99 98 97 96 94 95 95 94 93 90 90
91 93 93 89 88 93 96 98 100 100 99 100 100 100 100 100 100 100 100 99 96 92 88 84 78 79 88 92 92 96 99 100 100 100 99 97 98 99 100 99 98 98 99 94 87 85 82 81 82 84 87 82 78 86 86 81 82 79 78 81 85 90 96 102 99 96 99 101 99 100 101 100 100 99 99 100 100 98 96 99 99 97 95 92 93
96 96 95 94 95 99 100 100 100 100 100 100 100 100 100 100 100 100 100 99 95 90 88 86 82 82 89 91 90 91 94 98 100 99 99 98 98 101 100 98 96 97 98 94 90 88 82 79 80 83 87 84 82 88 87 83 83 81 78 78 85 94 97 100 99 94 97 101 99 98 99 99 100 100 99 100 100 100 98 99 100 99 98 96 96
96 96 95 96 98 100 100 99 100 100 99 100 100 100 100 100 100 100 100 100 97 94 91 88 86 87 91 91 90 93 96 98 100 100 100 99 99 100 99 96 95 99 100 92 87 89 85 78 77 80 83 81 78 83 86 84 81 81 79 75 77 91 101 101 99 95 92 93 96 99 98 97 99 100 100 101 99 99 99 99 100 100 100 100 98
94 96 97 98 100 100 100 99 100 100 100 100 100 100 100 100 100 100 100 100 100 98 96 94 91 89 91 95 97 99 99 99 100 100 100 100 100 100 99 98 98 99 100 95 89 91 88 80 79 82 84 82 79 81 84 82 81 79 79 76 71 77 92 100 100 97 92 84 85 93 95 97 100 99 98 99 99 99 99 99 100 100 100 101 98
95 97 99 99 100 100 100 100 100 100 101 100 100 100 100 100 100 100 100 100 100 100 100 98 96 92 91 93 98 100 100 100 100 100 100 100 100 100 98 98 100 99 99 99 94 95 92 86 87 89 86 84 82 80 81 81 81 78 77 77 72 70 81 97 101 98 95 86 78 82 86 88 93 98 98 99 100 100 99 97 99 100 99 101 99
97 97 98 99 99 99 99 100 100 99 99 99 100 100 100 101 99 98 100 100 99 99 99 100 98 96 93 90 95 100 100 100 98 98 100 100 99 99 99 98 99 99 99 100 96 94 95 93 94 92 87 84 81 79 78 80 80 79 78 75 74 74 77 91 101 98 96 89 80 81 85 84 82 87 94 98 100 100 100 99 100 101 100 100 100
98 98 97 97 97 98 98 99 99 96 95 96 98 99 101 101 97 97 99 98 99 98 98 100 98 98 98 96 97 99 98 98 97 96 97 99 97 97 99 99 98 98 99 101 97 93 95 96 94 90 87 84 79 77 77 81 82 81 81 77 77 79 75 80 92 96 93 87 84 88 90 87 80 79 85 91 96 99 100 100 100 100 100 100 100
94 95 94 96 95 95 95 96 98 96 93 94 96 96 98 100 99 99 99 97 98 97 94 89 88 95 100 99 100 99 98 98 98 97 97 99 98 96 98 99 99 100 99 99 95 93 95 97 93 87 84 81 77 77 79 82 85 83 82 80 80 81 78 78 83 87 86 83 88 93 90 88 85 83 84 85 91 97 100 100 100 100 100 100 100
92 91 92 95 92 91 91 92 95 94 92 92 93 94 94 94 95 94 96 97 96 96 88 77 79 92 98 98 100 100 100 100 99 99 99 100 100 99 98 97 99 100 99 96 92 93 97 95 92 86 81 80 78 79 82 84 85 84 81 79 80 82 82 82 80 79 80 81 87 89 87 89 89 89 88 86 89 95 97 99 100 100 100 100 100
94 93 92 91 88 86 86 87 89 90 90 90 89 92 93 93 90 91 97 98 96 90 75 68 78 88 92 97 100 100 100 100 100 100 100 100 100 100 99 97 98 98 96 93 91 93 94 92 89 84 81 81 80 82 84 85 85 83 82 81 81 82 82 83 81 79 79 81 85 85 82 81 81 84 86 86 89 94 98 99 100 100 99 99 100
95 95 94 92 87 84 82 80 80 81 83 85 85 86 91 94 90 91 100 101 96 82 65 69 82 81 82 93 99 99 100 100 100 100 100 100 100 101 99 97 98 97 95 94 93 92 91 90 88 85 84 83 82 84 85 84 84 83 83 83 82 81 82 83 83 82 79 80 83 84 81 77 73 75 79 80 82 87 93 99 100 99 98 99 100
95 97 96 96 94 91 90 86 84 84 83 84 85 81 84 89 89 90 96 100 98 84 72 80 85 73 73 86 94 98 100 100 100 100 100 100 100 100 99 99 99 98 96 94 92 92 90 88 88 86 85 85 84 84 84 82 82 82 82 82 80 80 80 81 82 82 79 78 79 82 81 79 76 75 77 77 78 83 92 99 99 97 98 100 100
97 100 99 99 100 98 98 99 97 96 94 93 91 85 82 84 87 89 92 96 93 78 76 85 77 64 70 82 91 97 98 100 100 100 100 100 100 100 99 99 98 95 94 92 90 91 88 85 86 85 84 85 84 83 81 80 80 81 81 81 80 78 77 78 79 80 79 78 78 80 80 80 79 78 77 76 77 81 91 99 98 96 98 100 99
96 99 99 98 100 100 100 100 100 100 99 99 97 94 91 86 86 88 87 89 82 68 76 86 72 64 76 87 94 96 95 96 97 99 101 100 100 100 98 94 91 90 90 90 89 89 87 86 85 84 85 86 84 82 82 82 81 80 79 79 79 78 78 77 77 78 80 79 77 78 79 80 80 79 78 76 75 75 80 89 95 97 99 99 96
96 98 98 97 98 100 100 100 100 101 100 100 99 98 99 94 90 90 85 80 73 65 73 81 74 72 79 86 93 96 96 96 97 99 100 100 99 98 95 88 85 88 89 87 86 86 87 89 87 84 86 86 83 82 83 83 81 80 80 80 81 80 79 78 78 80 80 77 76 78 79 78 78 78 77 76 76 74 73 78 87 92 96 98 97
97 98 98 98 98 99 100 100 100 100 99 100 100 99 101 99 96 97 94 86 76 67 67 74 78 79 80 82 89 96 99 98 99 100 99 100 99 96 93 89 85 86 87 83 83 85 87 88 85 83 84 83 82 83 83 82 82 81 79 79 80 81 80 79 81 85 84 80 77 78 79 77 77 77 77 78 79 78 75 74 78 81 85 93 99
97 97 96 97 99 99 100 100 99 98 97 97 98 98 98 100 100 100 100 97 88 79 75 78 82 84 85 84 88 94 97 97 99 100 99 100 99 94 92 89 85 84 83 80 82 83 84 84 81 79 80 78 77 79 79 79 77 74 73 74 75 78 81 83 85 87 87 83 81 81 82 79 77 78 79 81 80 79 78 75 77 79 77 80 90
95 96 96 96 98 99 99 100 100 99 100 98 97 96 94 95 98 99 100 100 98 94 92 92 93 93 91 86 87 94 97 98 100 100 100 100 96 92 89 88 86 83 80 78 80 81 79 78 75 73 74 72 69 70 72 71 69 67 70 74 77 79 83 86 87 87 86 84 83 84 83 81 80 81 81 80 79 79 79 77 79 82 78 73 77
96 94 96 96 96 99 100 100 100 100 100 100 99 97 95 94 92 93 95 95 98 99 97 98 99 98 95 91 92 97 98 100 99 98 99 98 93 89 87 88 87 83 81 79 78 79 77 72 70 69 69 66 64 66 68 66 66 68 70 74 78 81 85 85 84 85 85 84 84 85 85 83 82 83 81 79 77 78 79 78 78 80 81 76 72
96 93 94 94 95 98 98 99 101 99 97 97 97 98 99 98 94 93 94 95 98 100 99 99 99 98 98 98 99 99 100 100 97 96 98 95 90 88 86 85 84 81 82 83 78 76 74 69 67 67 65 63 62 65 67 66 66 69 72 75 79 82 82 80 79 81 81 81 82 82 82 79 78 78 77 77 78 79 81 81 78 77 79 78 73
93 91 91 91 91 94 96 97 99 99 99 97 96 98 99 100 100 99 99 98 99 100 100 100 100 100 100 100 100 100 100 100 98 98 100 93 89 90 86 82 81 79 80 82 79 75 71 67 66 66 63 62 61 61 64 65 66 70 73 76 79 77 76 75 76 78 78 79 79 76 75 75 76 76 75 75 77 77 80 82 79 78 77 76 72
88 87 88 89 88 90 93 95 96 98 99 98 97 99 99 100 100 100 100 99 100 101 100 100 100 100 100 100 100 100 100 100 100 100 100 94 90 90 84 79 80 77 73 75 74 69 68 67 66 65 63 62 63 61 61 64 67 69 71 71 71 69 70 71 72 75 77 77 75 72 73 75 76 76 74 72 72 71 73 77 78 77 76 75 72
83 82 83 86 86 87 89 93 95 95 96 97 97 97 98 99 100 99 100 99 99 99 99 100 101 100 101 100 100 100 100 100 100 99 97 94 90 86 82 80 79 74 70 71 70 66 67 66 64 63 63 63 64 62 61 64 65 65 64 64 64 63 64 65 65 70 75 75 72 71 74 76 75 74 73 68 66 66 67 70 73 74 74 72 71
79 77 78 79 81 84 87 91 92 92 92 92 93 95 96 98 98 99 99 98 97 98 98 96 96 97 99 98 97 99 100 100 100 99 99 97 93 87 84 81 76 73 72 71 68 66 66 65 63 63 63 63 64 63 63 64 62 60 58 58 57 55 56 58 58 62 71 74 73 72 73 75 74 72 69 65 63 63 61 61 62 64 67 69 69
77 75 74 74 74 75 82 88 88 88 90 89 89 92 93 94 96 98 98 96 94 97 97 91 87 92 95 91 91 96 98 98 97 97 98 98 96 92 88 83 76 73 73 69 66 66 64 63 64 63 61 60 62 62 61 60 58 56 53 50 47 45 47 52 54 58 66 73 74 73 74 75 74 68 62 56 54 54 52 49 49 53 60 64 64
78 75 73 73 71 71 78 86 87 85 86 87 87 88 90 91 94 96 98 96 92 93 97 93 87 90 92 89 92 98 98 95 93 93 92 90 90 89 87 86 80 71 68 66 64 65 64 64 64 61 58 58 59 59 57 53 50 48 47 45 43 42 44 48 53 58 65 72 75 75 75 72 66 60 54 49 46 47 46 44 45 48 52 57 58
81 78 76 73 69 70 74 80 83 83 82 84 84 85 88 89 91 95 99 99 95 93 97 96 91 89 88 89 94 98 98 95 92 91 90 86 88 88 82 81 77 68 64 63 62 64 66 66 63 59 57 56 55 55 52 49 45 44 45 45 44 44 47 52 58 64 70 74 74 73 70 64 56 52 50 48 46 45 44 43 44 44 47 51 55
84 82 80 74 67 66 69 71 74 76 77 79 80 82 85 86 89 93 98 101 100 97 98 99 97 92 88 90 97 98 97 96 91 91 91 88 88 85 76 73 72 67 63 59 59 65 67 66 63 58 57 56 54 53 52 50 48 45 44 47 47 47 50 58 66 71 71 70 68 65 62 57 54 52 52 50 49 47 45 44 46 47 47 48 51
85 85 83 77 69 66 65 66 67 68 70 72 74 78 81 83 86 91 96 100 101 100 100 100 100 97 92 93 97 95 95 94 89 89 93 90 86 82 76 74 72 66 60 56 58 66 66 64 63 60 58 56 53 53 52 49 47 45 45 50 52 51 52 60 69 69 65 62 60 58 56 55 54 54 53 52 51 51 49 47 49 50 49 49 50
86 85 83 79 74 68 65 66 65 65 66 67 69 72 76 79 83 87 94 99 100 100 101 100 100 100 98 97 95 91 91 93 89 86 90 89 84 81 81 79 72 63 59 57 59 63 65 64 62 59 58 57 54 52 49 45 45 45 46 50 53 54 58 64 66 63 59 57 58 58 58 58 56 55 54 53 52 52 51 51 51 51 50 51 52
89 85 82 80 77 72 69 67 65 64 65 66 67 69 71 76 81 85 91 97 100 100 100 99 99 100 100 99 96 89 87 92 90 86 89 91 85 82 82 79 70 63 61 60 60 62 63 62 60 59 59 58 54 49 44 44 47 47 46 48 52 57 62 63 62 60 60 61 62 62 62 61 60 60 61 62 61 59 57 56 55 53 52 52 53
90 86 82 80 77 75 73 71 68 65 64 64 67 69 71 75 80 85 91 96 99 100 99 98 97 98 99 100 99 93 89 92 94 90 91 91 87 83 81 75 70 65 61 59 60 60 60 59 58 58 59 56 53 50 48 51 54 53 50 49 53 59 64 64 64 64 64 64 62 62 62 61 61 62 62 64 67 69 69 67 65 64 62 60 60
92 88 85 81 76 73 72 70 68 66 63 63 66 69 72 75 79 85 91 94 97 99 100 100 98 97 98 99 100 99 96 95 96 95 93 90 86 84 80 73 69 66 62 59 60 60 60 61 59 59 60 59 58 57 56 57 58 57 56 56 59 65 68 67 67 65 63 60 60 61 61 59 59 61 61 62 65 67 70 72 73 74 73 71 72
94 91 86 81 75 72 71 68 66 65 62 62 65 68 71 74 77 81 86 90 95 97 98 100 100 98 97 97 98 98 98 96 93 89 87 86 86 84 82 78 71 65 63 63 63 63 63 64 64 63 63 66 68 68 65 62 61 61 61 61 63 65 62 59 60 61 61 61 59 60 62 60 59 59 60 62 64 64 67 72 76 79 79 79 81
94 90 86 80 72 69 68 66 64 63 62 62 64 66 69 70 72 75 79 83 88 92 94 97 100 99 97 96 97 97 96 95 92 87 85 89 90 85 84 87 83 74 70 68 68 69 69 68 68 66 64 67 71 71 67 64 61 61 61 60 58 56 54 57 63 64 62 61 61 62 64 64 63 64 63 63 66 69 71 75 80 83 85 84 85
91 86 81 76 70 65 63 62 62 62 64 64 64 64 65 66 67 69 71 75 78 81 86 92 97 99 98 95 95 96 96 97 96 93 91 93 94 89 84 86 86 82 78 76 73 72 72 72 71 69 66 65 67 69 66 61 56 54 54 52 51 53 55 61 71 74 68 66 69 72 72 71 71 72 73 73 74 77 79 83 85 87 89 90 90
89 84 79 74 70 66 62 60 61 62 62 62 61 62 63 62 64 66 67 70 71 72 77 85 92 97 98 96 93 92 94 95 96 99 97 91 87 86 82 78 78 79 81 81 78 74 72 71 70 70 69 66 68 74 75 68 63 60 58 53 50 54 58 64 75 82 79 76 78 79 77 76 75 75 77 78 79 80 81 82 83 83 85 87 88
85 84 81 73 66 63 61 60 62 62 61 59 57 58 60 61 62 63 65 67 68 68 73 81 90 95 97 97 95 93 92 91 89 93 96 91 84 82 80 76 76 77 78 79 77 74 74 74 71 71 71 69 71 78 80 75 70 66 66 65 60 60 69 78 82 85 84 81 80 80 78 77 75 74 74 74 73 75 76 75 76 76 74 73 73
84 82 80 71 62 61 64 66 66 63 59 57 55 56 59 61 60 61 64 67 66 66 70 77 88 95 96 97 99 98 97 97 93 89 91 91 87 82 79 77 77 78 77 76 75 74 75 77 75 73 75 76 78 83 85 83 79 73 70 71 70 70 77 84 83 79 78 77 76 75 73 71 70 69 67 63 60 60 60 60 61 62 61 59 57
82 79 76 72 67 66 69 70 67 62 57 56 55 54 57 59 59 61 63 62 60 62 67 72 80 89 94 97 100 100 99 100 100 96 93 93 91 85 80 79 79 79 78 78 77 74 74 75 75 74 75 77 79 83 85 86 86 84 79 77 78 79 80 81 79 75 74 72 71 71 71 69 68 66 60 52 45 42 40 37 39 42 46 50 54
72 71 71 73 72 69 67 67 64 60 56 56 55 54 55 56 58 60 59 52 48 52 59 64 70 77 86 92 97 100 100 100 101 100 97 96 96 92 86 83 81 80 78 76 75 73 72 71 70 67 66 68 71 75 80 84 87 91 91 86 83 81 80 79 76 74 73 74 73 73 70 63 57 51 43 35 31 30 31 31 35 41 47 55 63
64 62 63 67 71 71 69 66 63 59 55 55 55 54 53 52 54 57 56 49 44 44 48 56 62 69 78 86 91 96 99 99 99 99 98 96 96 93 89 85 82 79 78 76 74 71 67 64 61 56 53 53 55 58 65 74 82 88 93 92 88 86 84 81 80 79 77 75 69 62 53 44 35 29 27 27 30 35 38 41 46 50 54 57 58
68 63 59 58 62 66 67 65 62 60 57 56 55 53 52 51 48 46 49 53 51 43 41 47 57 63 70 79 86 90 94 97 96 94 93 93 92 91 90 87 84 81 79 78 76 72 67 63 59 55 51 47 44 42 44 52 61 69 76 79 79 78 76 74 73 70 61 51 43 39 36 34 31 30 34 40 45 49 51 54 56 55 54 52 49
71 67 63 61 61 62 62 61 59 57 56 56 56 53 52 51 43 37 42 51 49 40 36 42 52 57 61 69 78 83 86 89 89 88 88 89 88 87 87 86 83 80 77 75 73 70 67 65 63 61 58 54 47 41 39 41 46 50 51 52 51 50 48 47 45 40 34 34 40 46 50 51 49 51 56 59 62 63 62 61 59 57 56 56 54
70 66 62 61 61 60 60 61 59 56 54 55 56 54 52 50 42 34 37 40 33 26 30 40 49 52 52 55 64 72 77 80 82 82 83 85 86 85 83 81 79 77 74 72 70 67 64 63 62 62 61 57 51 46 44 44 44 43 40 36 34 32 30 29 29 32 38 49 60 66 67 66 65 67 69 71 74 75 72 67 63 63 63 63 62
72 65 58 58 60 60 62 63 62 58 55 54 54 51 49 48 43 36 38 42 36 27 26 34 43 47 47 47 49 55 62 67 71 74 77 81 85 86 85 83 80 77 74 69 65 63 60 58 57 57 56 54 53 51 49 48 48 45 39 34 31 31 31 33 38 47 56 63 68 70 70 71 71 71 71 73 75 77 75 71 68 69 71 71 70
72 67 63 61 61 62 63 64 63 60 56 53 53 50 47 47 45 40 40 46 45 35 27 29 34 37 41 43 42 42 44 47 51 56 60 64 71 76 79 79 77 74 71 67 63 60 58 56 54 53 52 52 52 51 51 52 53 50 45 41 40 41 44 48 54 61 65 66 68 69 70 70 69 68 69 72 74 76 76 75 74 75 76 76 74
70 67 64 61 59 60 62 63 62 58 55 54 53 52 49 48 47 45 45 46 47 43 39 38 37 37 38 39 40 41 42 42 43 46 49 50 52 54 57 60 61 61 60 60 60 60 59 57 54 52 50 50 51 50 51 54 57 55 52 52 53 53 56 59 63 66 66 67 68 69 68 68 68 67 68 70 72 73 74 74 75 78 81 79 74
65 62 59 57 56 57 59 61 59 55 54 54 54 53 51 49 47 46 46 47 48 50 51 50 49 49 47 45 45 45 45 46 47 49 52 54 54 52 51 53 57 59 58 58 59 60 60 58 56 56 55 53 52 51 52 55 57 59 60 61 62 62 62 64 66 65 64 64 66 68 69 69 69 68 70 71 72 71 70 69 71 75 78 78 76
60 57 55 53 53 54 55 56 56 55 54 54 53 52 52 50 48 46 46 47 49 52 55 56 57 57 55 54 53 52 50 50 51 52 53 57 60 62 63 64 65 65 64 63 63 64 64 63 62 61 59 55 51 50 51 52 55 61 66 68 66 65 65 65 64 61 61 64 66 67 70 71 70 70 73 74 73 72 71 72 72 72 74 78 81
Wind_Speed
8 14 16 19 20 19 18 18 19 20 20 20 20 21 21 22 23 25 25 27 27 26 26 27 27 26 25 25 26 25 22 20 20 22 22 22 22 22 24 24 24 24 27 27 24 22 21 21 23 23 22 21 20 19 18 17 16 17 18 19 19 19 19 16 16 19 19 16 12 11 9 7 8 9 8 8 10 10 10 10 9 9 10 10 8
7 9 12 17 17 15 14 14 15 16 15 17 18 20 22 22 23 25 25 26 27 27 28 27 28 29 27 25 25 23 22 20 19 21 21 21 21 22 21 21 22 24 26 25 23 23 22 22 23 23 21 20 18 17 16 16 16 17 19 20 19 20 20 18 20 18 15 13 12 9 7 5 4 4 4 4 5 5 7 9 10 10 10 10 9
6 6 10 14 12 8 6 4 4 5 5 8 12 16 19 20 22 24 25 25 26 27 28 26 27 27 23 21 22 22 23 22 21 21 21 22 22 21 19 19 22 24 24 23 21 21 21 21 22 22 20 20 18 16 16 17 17 17 19 20 19 19 18 20 21 15 14 16 12 6 3 3 3 2 3 3 4 4 5 7 8 10 9 8 9
10 8 7 6 4 6 6 6 4 3 3 5 7 12 16 16 19 22 23 24 25 27 27 26 25 23 19 17 17 18 19 19 20 20 22 22 21 20 18 20 24 25 22 21 20 19 20 20 21 21 20 19 18 16 17 18 18 18 19 19 20 19 17 20 19 14 17 18 9 3 2 2 1 2 3 2 2 5 5 6 7 7 8 8 9
8 5 3 4 8 9 6 4 6 7 7 9 9 12 14 15 17 19 20 21 23 25 25 25 24 21 17 13 11 13 13 13 16 18 19 20 21 20 17 18 22 22 21 20 19 19 21 21 21 21 20 19 17 16 18 18 18 19 19 19 20 20 19 21 19 14 18 18 11 6 3 1 1 2 4 3 2 5 4 5 6 7 8 8 9
3 4 4 5 7 7 5 6 8 8 8 11 14 14 15 16 18 19 20 19 18 20 23 24 23 21 19 15 13 12 9 9 13 15 16 18 20 19 16 16 18 19 19 18 19 21 23 22 21 20 18 17 16 15 18 19 18 19 19 19 19 20 20 23 22 17 17 17 12 8 4 2 5 6 4 0 2 4 4 5 6 7 8 7 7
5 5 4 4 6 5 4 4 5 6 6 9 14 17 18 18 18 19 21 21 18 15 16 20 21 20 21 20 16 12 10 10 14 15 16 17 17 16 16 15 15 17 17 18 19 21 22 20 19 19 17 16 15 15 17 18 19 18 18 19 19 20 20 23 24 20 18 17 12 7 2 2 9 11 6 3 2 3 5 6 6 6 7 7 8
4 5 5 4 5 4 3 4 4 4 4 7 11 15 18 19 18 16 17 21 22 15 10 10 16 21 22 19 16 16 16 16 16 15 16 17 16 16 17 16 15 16 17 18 19 19 19 20 19 18 17 16 16 15 16 18 19 18 18 19 19 20 20 22 25 22 19 18 14 9 5 4 11 13 12 9 4 1 3 4 5 6 7 7 7
5 4 4 4 4 3 2 3 4 4 2 3 6 11 14 17 16 12 10 15 19 19 12 9 16 23 21 17 16 17 18 18 16 13 14 16 16 16 16 16 15 16 17 18 17 17 18 19 18 17 16 16 16 15 16 17 19 19 18 19 19 19 19 20 23 23 20 18 16 10 5 8 11 10 12 11 6 4 3 2 4 6 6 7 7
5 4 4 4 4 3 1 2 4 5 2 1 2 6 11 15 16 14 10 12 16 18 18 18 20 22 22 19 15 16 16 17 15 13 13 14 14 14 13 15 16 17 18 18 17 17 18 18 17 16 16 16 16 15 16 17 18 18 17 17 17 18 18 18 18 19 19 18 17 13 9 12 11 7 10 12 8 5 3 3 6 6 5 6 7
4 4 4 3 3 1 1 3 5 6 5 3 1 3 8 13 15 15 12 12 14 16 19 22 22 23 26 23 19 19 19 17 15 13 14 14 13 11 11 14 16 17 17 17 17 17 17 17 16 15 16 15 16 16 16 16 17 17 15 15 16 16 17 17 16 16 18 18 18 15 13 14 12 10 15 16 11 7 5 4 7 7 6 7 6
4 4 3 4 2 2 3 6 8 10 10 8 6 5 6 10 12 14 11 15 15 14 17 22 22 21 26 24 22 23 22 19 16 14 15 15 13 10 9 12 14 15 16 16 17 16 16 16 15 15 16 16 17 18 17 17 17 16 14 15 15 16 18 17 16 16 18 19 19 16 14 14 15 14 17 19 15 13 11 7 6 7 6 5 7
4 4 4 4 4 6 7 8 10 11 12 10 8 9 8 10 12 11 9 15 15 15 18 21 20 19 24 25 23 22 21 20 18 16 16 16 14 13 12 13 14 15 16 17 17 16 16 16 16 16 17 17 18 18 17 17 17 15 14 15 15 15 17 17 17 16 17 18 18 17 15 14 15 13 13 17 15 14 15 10 8 8 5 4 6
5 5 5 5 6 10 12 14 15 16 18 15 8 9 10 11 12 10 10 14 17 19 21 22 20 21 24 25 23 22 21 21 19 18 17 17 16 16 16 16 16 16 16 17 17 16 15 16 16 17 18 18 17 17 17 17 16 15 14 15 15 15 15 16 17 16 16 17 16 16 15 14 14 12 11 15 16 15 17 15 11 7 5 6 5
5 5 6 7 9 12 13 14 16 17 19 18 10 7 8 10 12 12 15 19 21 22 24 25 24 24 25 25 23 22 21 21 21 20 19 19 18 17 18 18 17 16 15 14 14 14 15 16 17 17 17 18 18 17 16 15 15 15 15 15 15 15 14 15 16 15 16 16 15 15 14 13 14 13 11 14 16 16 17 20 18 9 4 5 4
5 5 6 7 10 12 13 14 15 16 17 17 13 6 7 10 12 15 18 21 24 26 27 27 27 26 27 26 24 22 20 19 21 21 20 19 17 17 17 16 15 15 13 12 13 14 15 16 17 18 17 17 17 17 16 16 16 16 15 15 15 15 15 15 15 14 14 14 13 13 14 13 13 13 12 13 16 17 16 20 23 17 8 4 2
5 4 5 6 8 11 13 13 14 15 16 16 14 10 7 8 9 15 19 21 24 25 26 27 28 28 28 27 25 24 22 20 22 22 20 17 16 17 16 14 14 14 13 14 15 14 15 16 17 17 18 17 16 16 16 16 16 15 14 14 14 15 15 15 14 14 13 12 11 12 12 12 12 13 12 13 16 17 16 19 22 22 16 9 3
5 6 6 8 10 12 13 13 13 14 15 15 14 13 11 11 10 10 16 22 25 24 24 26 28 30 30 27 26 25 23 23 23 23 21 19 18 18 17 15 15 16 15 16 17 16 16 17 17 17 17 16 15 15 15 14 14 13 12 13 13 14 14 14 14 13 12 12 12 11 10 10 11 11 11 12 14 16 17 19 22 22 18 13 9
7 7 8 9 12 15 15 15 14 15 15 14 13 13 13 12 12 12 14 19 20 19 20 22 24 27 28 27 26 25 24 23 23 22 21 20 19 19 19 17 16 17 18 19 19 18 17 17 16 16 16 16 14 14 15 15 14 13 13 12 12 13 13 13 12 11 11 12 12 12 10 10 11 11 10 10 12 14 16 19 22 21 17 14 13
7 8 8 9 11 15 17 17 17 16 16 16 15 15 14 13 13 14 16 18 18 18 18 19 20 22 23 23 23 23 23 23 22 22 21 20 20 20 19 18 17 18 19 20 20 19 18 17 16 16 17 16 15 15 17 17 15 14 13 13 13 13 12 11 11 11 11 11 12 12 11 10 10 11 10 10 11 12 14 18 21 21 18 13 11
7 7 7 8 11 15 16 18 18 17 18 19 18 17 16 15 14 14 15 15 15 15 15 16 19 20 19 18 19 20 21 22 22 21 21 20 20 20 20 20 20 21 20 19 19 20 19 18 18 17 17 16 15 16 17 17 15 14 13 13 13 12 11 10 10 11 11 11 12 12 10 10 10 10 10 9 9 10 12 16 19 20 19 15 12
7 7 7 8 12 15 17 19 19 19 21 22 21 18 17 18 18 17 15 14 14 12 9 9 12 16 15 14 16 17 18 19 21 20 20 20 21 21 21 21 23 23 21 18 19 20 21 21 19 18 17 16 15 15 16 16 15 14 13 13 13 12 12 11 10 10 10 10 11 11 10 10 10 9 9 9 8 9 11 15 19 20 20 18 16
7 7 7 9 12 15 17 19 21 21 22 23 22 21 20 20 19 20 18 16 16 15 10 7 7 11 12 11 12 15 17 18 19 19 18 19 21 21 21 23 25 24 22 20 20 21 21 20 18 17 16 15 15 15 15 15 15 15 14 14 13 12 11 11 11 10 10 10 10 10 10 10 9 8 8 8 7 9 11 14 19 21 20 20 18
7 7 8 10 14 16 17 18 19 21 21 22 22 22 22 22 21 21 19 18 18 18 16 11 9 8 6 6 8 11 15 16 17 18 18 19 21 23 22 24 25 24 23 23 21 20 19 17 16 16 16 16 17 15 15 16 16 15 14 13 12 11 11 11 10 10 10 10 10 10 10 8 8 9 8 8 7 7 9 14 18 20 20 21 20
8 8 9 10 12 14 15 15 15 18 20 21 22 22 22 22 22 21 21 19 18 18 18 16 12 8 5 4 4 8 12 12 12 12 13 16 18 21 23 24 24 24 23 23 22 20 17 15 16 16 16 17 17 16 16 16 14 12 11 11 11 10 10 10 10 9 8 9 9 9 10 8 8 9 7 7 9 9 10 14 17 18 19 20 21
9 9 9 9 10 13 14 15 15 17 19 20 22 23 23 23 23 23 22 21 19 17 15 15 13 9 5 6 5 8 12 12 11 8 8 10 13 16 20 22 23 24 23 23 21 19 17 17 17 16 15 17 17 17 16 14 13 11 11 11 11 10 10 11 11 9 8 9 9 9 9 8 8 8 7 7 9 10 11 11 13 16 18 20 21
8 8 8 8 9 12 14 15 16 17 18 19 20 21 22 23 24 24 23 21 20 17 12 11 12 9 5 6 5 6 10 13 13 12 12 13 15 17 19 19 21 24 23 21 20 19 19 19 18 16 16 17 18 17 15 13 11 10 10 10 10 11 12 11 11 10 9 8 10 10 9 8 8 8 9 9 8 8 7 5 5 9 14 16 18
8 8 8 9 9 10 14 16 17 18 19 20 21 21 22 23 23 25 24 22 20 16 10 7 8 8 6 4 3 5 10 13 13 14 16 18 18 20 21 20 20 22 21 19 19 20 21 20 18 17 17 17 17 16 15 13 11 9 9 9 11 13 13 11 10 9 8 8 9 10 10 10 10 10 10 10 8 7 6 5 4 3 6 10 13
9 8 8 8 9 9 12 15 16 18 20 21 23 24 24 25 25 25 25 22 19 16 9 5 5 6 6 4 3 7 11 13 14 16 18 20 21 22 23 21 21 21 19 18 19 21 21 20 19 18 17 17 16 15 15 14 11 10 9 9 13 15 14 12 11 10 10 12 12 12 13 13 12 12 10 9 8 7 6 6 6 4 4 4 6
8 8 8 7 8 10 13 15 17 19 19 20 21 22 23 25 25 25 25 22 19 16 10 5 3 4 4 4 5 9 13 14 17 18 18 20 22 21 22 21 21 21 21 20 20 20 20 19 18 18 17 17 16 15 15 15 12 11 10 10 14 18 16 13 14 15 16 16 16 16 15 14 12 11 9 8 8 7 6 5 5 4 4 3 3
8 8 8 8 9 11 13 15 16 18 18 18 19 20 22 24 24 24 23 21 20 18 15 11 6 1 4 7 9 12 15 15 18 19 17 17 20 20 19 20 21 22 21 20 21 20 19 18 18 18 17 16 16 15 15 15 13 12 13 13 16 18 17 16 17 18 18 18 17 16 15 13 11 9 8 7 6 5 5 5 4 3 3 3 4
8 8 9 9 9 10 12 14 15 17 19 20 20 21 22 23 23 22 21 21 21 20 19 16 10 5 2 7 11 14 15 16 19 20 18 18 20 19 18 19 20 21 19 18 20 20 19 18 18 17 16 15 15 14 14 14 14 15 15 16 17 18 19 20 20 19 18 16 15 12 10 8 8 7 6 6 5 4 4 4 3 3 4 4 5
7 8 8 8 9 11 12 14 16 18 19 20 20 20 21 21 21 22 22 22 22 22 21 19 15 11 6 5 10 13 14 15 18 19 20 20 19 18 19 20 20 20 20 19 20 20 20 19 18 17 15 14 14 14 15 16 18 19 18 18 19 20 21 21 19 17 15 12 10 7 4 4 4 4 3 3 3 3 3 3 2 2 3 4 5
6 6 7 9 12 14 15 17 18 19 19 19 20 19 19 19 21 22 23 23 23 23 22 22 20 17 12 9 9 11 12 13 15 15 15 17 16 16 20 22 21 21 21 21 21 21 21 20 19 18 17 17 18 17 18 19 20 20 20 20 21 21 20 18 15 12 10 8 7 5 4 3 2 2 1 1 1 1 1 1 1 1 2 3 3
6 6 8 11 14 16 17 19 20 20 19 20 20 20 19 20 22 23 24 24 24 24 24 23 22 20 17 14 13 12 12 13 15 15 15 14 15 17 19 21 23 24 24 23 24 23 23 22 22 22 22 21 21 21 21 21 21 21 21 22 21 19 16 14 11 9 7 7 6 5 4 2 1 1 2 3 3 3 3 2 2 2 3 3 3
7 8 10 12 14 16 17 19 20 21 22 21 20 20 20 21 22 23 24 24 24 25 24 23 22 21 20 18 16 15 14 15 16 16 17 17 18 20 20 20 23 25 26 26 26 24 24 24 24 24 26 25 24 23 23 22 22 22 22 21 18 15 13 12 12 11 9 9 8 6 4 3 2 2 1 2 4 4 3 2 2 3 3 2 2
10 11 12 14 16 17 19 20 21 22 22 21 20 20 21 23 24 24 24 25 26 26 24 23 21 20 19 19 18 18 18 18 19 19 20 21 20 22 23 22 23 27 27 27 27 26 24 23 22 22 22 23 21 21 21 20 18 18 19 18 15 14 13 11 10 11 11 10 9 7 6 5 3 2 1 0 2 2 2 1 1 2 3 3 2
12 14 16 18 20 20 21 21 22 22 22 21 20 20 22 25 25 25 24 25 26 26 24 23 21 19 17 18 18 18 19 21 21 21 23 25 24 24 25 25 26 28 28 27 28 27 24 21 20 18 17 16 15 14 14 16 14 12 14 15 14 14 15 13 11 12 12 11 10 8 6 4 3 1 1 1 1 0 1 1 2 2 2 3 3
15 15 17 20 21 22 23 23 23 22 21 21 20 21 23 25 25 25 25 25 25 24 23 22 20 18 16 16 16 16 17 19 20 19 21 26 28 27 26 25 26 28 27 26 26 26 25 21 18 15 13 13 12 10 9 10 11 10 10 12 13 15 17 17 15 14 12 11 10 8 6 5 4 3 3 3 2 2 2 2 3 3 4 5 5
16 16 17 21 23 24 25 24 23 21 20 21 21 22 23 24 24 24 24 24 22 22 22 22 20 19 17 15 16 16 15 16 17 16 18 22 25 26 25 25 25 26 26 25 23 23 23 22 18 15 13 13 13 11 9 8 9 10 8 9 12 15 17 18 16 15 14 12 11 10 8 8 7 7 6 6 5 4 4 4 4 4 4 5 5
13 14 16 20 22 24 24 23 22 21 21 21 21 22 22 22 23 23 22 21 20 20 21 21 21 20 19 16 16 16 16 16 16 15 16 18 21 23 24 24 24 24 24 25 24 22 23 23 20 18 17 16 14 13 11 8 8 10 10 10 12 14 16 17 16 14 13 12 11 9 9 8 7 7 6 5 5 5 5 5 5 5 5 5 5
13 14 15 17 19 22 23 22 22 22 21 21 21 22 21 21 21 21 20 19 20 20 20 20 21 21 21 19 17 16 16 17 16 16 17 17 19 21 24 25 25 24 24 24 24 23 24 23 21 19 18 17 16 14 12 10 8 8 9 10 12 13 13 13 14 13 11 10 9 8 7 7 6 5 5 4 4 4 4 4 5 6 7 7 7
14 15 16 17 18 19 21 21 21 22 21 21 21 22 21 21 20 18 16 16 18 19 20 21 21 21 20 20 20 19 18 19 18 18 20 20 20 21 24 25 24 24 25 25 24 23 23 23 21 20 18 16 15 14 12 11 10 10 10 10 12 12 11 9 10 11 10 9 8 6 5 5 5 5 5 5 5 5 6 7 9 10 10 10 10
10 12 14 16 16 17 19 21 21 21 21 20 20 21 21 20 19 15 13 14 16 17 19 20 21 21 21 20 21 21 21 21 21 21 22 23 22 22 23 23 23 24 25 24 22 22 23 23 21 20 17 15 14 13 11 10 10 9 9 10 10 10 9 7 8 9 9 8 7 6 6 6 7 8 8 9 9 9 10 12 12 13 12 12 12
9 10 12 13 14 16 18 20 20 20 20 18 19 20 20 20 18 16 15 15 15 16 18 20 20 21 22 21 21 22 22 22 22 23 24 23 22 23 23 22 22 23 24 24 22 21 22 22 20 18 17 14 13 12 11 9 8 7 7 7 6 6 6 6 6 7 8 7 8 8 9 9 10 11 12 12 13 13 14 14 13 12 12 12 13
10 12 13 15 16 18 19 20 20 19 19 18 17 18 19 17 16 17 18 18 18 19 19 19 20 21 22 23 23 23 23 22 22 22 23 22 22 23 23 23 22 23 23 23 22 21 20 19 17 16 14 12 11 10 9 8 7 6 6 6 5 5 5 5 6 7 8 9 10 10 11 12 13 13 13 14 14 14 13 12 12 11 11 12 12
9 11 14 16 18 19 19 20 20 19 20 19 18 18 18 16 14 15 17 19 21 22 21 20 20 20 21 22 24 25 25 24 24 23 23 22 21 21 22 21 21 21 21 20 20 19 18 17 15 14 12 11 10 9 8 8 7 6 6 5 5 5 6 7 8 10 11 12 12 13 13 14 14 14 13 13 13 12 11 10 10 10 10 11 11
8 9 12 14 16 18 18 19 19 19 19 19 19 18 17 15 14 13 14 17 21 22 22 22 21 20 20 21 22 23 24 25 25 25 24 23 21 20 20 20 18 17 16 16 16 16 15 14 13 12 11 10 10 9 9 9 9 8 7 6 7 8 10 11 13 14 15 15 15 15 15 15 14 14 13 13 12 11 10 10 9 9 9 9 9
6 7 9 12 14 16 18 19 19 19 18 17 16 16 14 13 12 11 11 15 19 20 21 22 22 22 22 21 21 22 22 23 24 25 24 23 21 20 20 19 17 15 14 14 13 14 13 11 10 9 9 8 8 8 9 9 9 9 8 8 10 12 13 14 15 16 16 16 16 16 16 15 14 14 14 14 13 12 12 11 10 9 8 8 8
5 7 10 12 14 15 17 19 19 20 20 18 16 15 13 12 12 10 9 11 15 17 19 20 20 21 21 21 22 22 22 23 24 25 25 24 22 20 20 19 18 16 15 15 15 14 12 10 9 9 8 7 7 7 8 8 8 9 9 11 13 14 14 15 15 14 14 15 15 16 16 15 14 14 13 13 12 11 10 10 9 8 7 7 7
6 8 11 13 13 13 15 17 18 19 19 19 18 17 14 13 12 11 10 11 13 15 16 16 17 18 18 19 20 20 21 21 22 22 22 23 22 21 20 19 19 17 16 15 15 14 13 12 11 10 9 8 6 5 6 7 8 10 12 14 15 14 13 13 11 9 10 14 15 15 15 14 13 13 13 12 10 9 8 7 7 6 6 6 6
Wind_Direction
199 196 195 195 201 203 199 195 192 193 196 191 185 185 186 187 189 196 207 212 207 202 204 207 207 211 219 222 222 223 224 224 224 224 224 226 225 222 216 212 212 213 214 213 210 206 199 192 186 182 185 188 189 188 186 190 195 194 187 180 173 159 154 158 157 144 129 127 135 139 153 168 187 207 213 206 202 196 196 199 204 210 203 195 197
192 191 194 198 202 201 197 193 188 189 192 188 185 184 187 190 194 199 207 212 210 206 206 208 209 212 216 221 221 221 222 223 226 228 228 231 229 222 216 213 212 211 212 210 206 203 196 189 185 183 185 189 190 186 186 191 192 193 185 177 174 165 157 160 160 150 132 130 130 119 117 125 160 209 222 222 216 206 204 207 214 220 207 195 200
191 191 198 201 197 186 181 162 159 177 185 188 185 185 189 194 200 205 207 210 212 210 209 209 211 215 218 224 226 225 226 226 228 230 227 227 230 229 223 217 214 210 207 204 201 201 196 189 188 187 188 191 192 186 186 191 193 193 187 179 173 164 158 163 168 163 143 132 123 113 111 101 114 170 191 198 206 210 216 216 224 230 224 214 213
191 192 195 187 127 80 69 63 81 128 157 176 182 187 194 200 207 211 211 213 214 212 211 211 212 216 219 227 231 228 228 229 229 231 230 229 231 230 221 214 213 209 206 199 195 202 201 194 192 191 191 194 197 194 189 191 195 195 190 185 176 164 158 166 175 176 161 147 126 103 97 97 148 165 143 139 207 219 219 221 230 234 231 233 228
185 169 114 79 72 75 88 136 168 164 167 178 180 184 195 205 213 217 217 218 220 218 215 212 213 215 214 218 221 219 221 224 223 227 233 234 231 225 214 214 213 205 204 198 193 203 205 198 195 194 193 196 200 202 198 194 196 198 195 192 187 179 172 173 179 182 176 168 152 135 115 123 211 148 129 128 207 210 207 215 232 238 234 235 227
82 84 83 86 89 107 143 176 179 170 173 185 188 187 191 201 211 218 220 222 227 228 223 219 219 216 212 213 212 209 207 208 214 222 230 234 233 227 220 223 220 208 205 200 195 203 206 200 197 197 196 198 201 205 205 199 197 202 200 196 195 194 184 177 180 183 182 178 161 146 140 175 174 147 131 153 199 189 196 209 228 238 232 228 216
74 86 92 85 86 106 134 153 173 177 175 191 196 194 192 194 202 212 217 222 230 236 235 227 222 222 221 219 218 217 216 218 224 226 229 234 236 232 229 229 225 214 204 199 199 203 206 204 200 201 200 198 202 207 209 207 203 204 204 200 198 197 191 182 183 183 183 185 180 177 212 208 177 168 166 169 156 179 194 198 216 229 217 210 212
84 86 80 73 88 108 135 154 179 186 176 194 200 201 200 196 198 202 208 218 224 230 248 246 232 234 234 226 224 228 233 236 235 232 232 236 237 234 232 230 225 216 203 199 201 201 206 207 201 201 200 199 204 208 211 212 208 204 203 201 198 198 198 192 187 185 185 189 195 214 251 211 185 186 182 165 133 133 179 182 201 210 204 202 211
77 79 80 72 87 105 135 165 196 208 186 179 193 206 209 206 208 207 208 218 220 217 224 247 243 243 246 238 230 232 237 243 242 238 234 231 231 230 230 231 226 212 200 198 200 201 204 204 199 199 198 198 204 208 213 213 209 205 201 199 200 202 204 200 194 191 193 196 198 206 206 173 176 185 179 163 138 147 158 142 176 189 195 198 208
81 74 72 64 75 96 131 184 217 231 235 117 156 202 210 215 215 212 217 222 221 218 220 231 236 240 248 247 241 239 239 244 243 234 228 222 221 220 219 223 219 202 193 193 193 195 198 201 202 200 196 199 203 205 206 206 203 202 200 199 203 207 206 206 206 202 203 203 200 200 182 164 163 166 173 165 145 149 151 139 166 176 178 184 200
74 66 51 44 65 98 236 245 247 252 257 250 238 219 213 216 213 209 206 193 198 213 219 224 227 234 243 246 248 248 242 240 237 228 226 221 216 213 206 211 210 196 188 187 185 187 193 200 204 201 197 200 200 198 195 194 195 195 196 199 201 207 209 211 215 215 214 208 203 209 206 191 188 187 183 174 159 152 145 140 162 170 169 174 194
60 61 34 17 11 297 263 256 257 257 257 247 238 243 226 218 217 210 177 141 154 189 208 213 216 231 243 243 243 247 244 239 233 226 225 219 209 206 203 204 201 191 187 188 185 186 192 199 203 200 198 198 195 192 191 191 191 190 195 200 201 206 210 214 216 219 219 211 208 218 224 221 217 209 194 184 178 170 159 147 152 157 157 172 187
38 37 17 6 357 344 334 316 303 295 296 287 252 241 231 218 218 208 157 134 155 190 205 206 208 228 243 241 239 242 244 241 235 226 221 217 207 199 194 195 196 193 192 193 192 190 194 200 203 201 199 196 191 189 191 191 190 190 195 198 200 205 210 215 217 218 221 218 217 222 226 227 224 221 207 194 188 171 158 148 149 156 145 144 172
20 14 7 3 359 358 355 346 340 337 338 339 301 252 240 222 211 198 174 169 184 203 209 204 207 224 237 237 235 237 241 241 236 227 220 217 212 201 194 195 199 201 197 196 194 192 197 204 206 203 199 195 192 190 190 190 191 195 199 201 203 206 209 213 215 217 219 219 222 224 225 225 219 220 219 205 195 179 165 156 149 151 138 130 147
19 9 10 9 2 2 359 353 351 347 348 352 339 279 253 230 207 196 193 192 201 213 211 206 210 219 227 231 231 234 239 240 237 233 225 220 216 207 201 200 202 206 204 202 201 199 202 205 204 201 197 194 193 191 190 190 193 197 201 205 206 206 207 208 210 213 214 216 223 226 224 223 216 216 224 217 208 201 186 170 157 145 126 134 141
25 14 16 14 7 5 0 357 358 358 359 359 352 324 271 249 221 209 208 205 210 217 215 213 216 216 218 224 227 230 233 236 237 235 229 225 220 214 209 205 201 202 206 209 208 204 205 203 199 197 196 195 194 192 192 194 196 199 203 204 204 205 204 204 205 207 210 214 220 222 221 222 221 221 227 223 216 215 205 184 169 160 151 144 159
32 20 17 12 9 9 7 6 6 8 9 6 2 354 319 290 254 223 219 218 218 221 220 220 220 217 217 219 221 222 223 228 233 231 226 222 216 213 212 204 193 193 200 203 199 199 202 199 194 193 195 194 193 194 195 196 198 201 203 201 201 201 200 202 204 203 206 210 212 214 218 223 225 224 223 221 217 214 209 197 187 178 165 150 157
23 18 18 15 16 16 15 15 15 16 14 9 7 0 346 329 307 262 241 237 231 227 223 222 222 220 218 216 216 217 217 221 225 225 222 215 207 205 206 200 190 188 191 191 189 192 193 190 187 187 189 188 188 191 192 194 197 198 197 194 194 196 197 199 203 203 206 211 211 212 217 221 223 219 217 218 216 215 212 204 197 188 176 168 170
18 21 22 20 22 21 20 22 22 24 21 16 15 5 354 340 319 298 280 265 253 242 229 221 221 222 221 218 217 216 214 215 218 220 218 212 204 199 198 198 193 189 186 183 184 187 185 184 186 186 185 183 184 189 188 189 191 193 194 192 190 192 195 196 199 206 211 212 211 212 213 213 215 218 220 220 215 216 216 207 198 193 189 188 183
18 21 22 18 21 21 22 26 26 27 26 23 24 18 7 353 330 309 301 294 283 268 246 226 221 225 226 223 219 215 213 213 215 217 215 211 205 197 193 194 193 189 185 183 182 182 181 182 184 184 181 180 183 187 188 190 194 199 200 198 195 195 197 199 201 206 211 211 210 210 213 212 215 221 221 217 214 214 215 210 203 200 200 204 200
18 14 18 13 14 16 19 23 21 21 24 25 26 21 12 4 350 331 318 316 310 289 260 237 230 230 232 229 221 215 213 213 213 214 214 210 204 198 192 191 189 184 183 188 188 182 179 177 175 175 176 177 181 184 187 194 200 205 204 200 198 193 192 195 196 198 201 205 208 210 212 211 209 213 210 206 209 210 212 212 210 208 208 211 216
17 8 13 11 10 11 15 18 15 12 15 20 21 17 11 8 5 358 350 344 338 322 290 261 240 230 231 231 223 216 212 212 211 211 212 208 202 199 194 190 186 178 176 188 191 182 179 178 175 175 176 178 181 181 185 196 202 201 196 192 189 184 183 186 189 192 192 194 203 204 201 198 194 196 200 200 202 203 206 215 218 218 216 218 224
18 9 7 9 11 14 18 18 12 6 10 15 15 14 14 12 11 10 7 2 354 345 334 313 270 239 229 229 228 219 212 212 212 211 211 207 201 198 194 189 184 175 169 180 188 183 180 183 183 183 184 182 181 180 184 192 194 188 182 181 181 181 187 192 192 192 189 188 194 193 187 187 185 181 187 190 195 198 202 217 226 225 223 224 228
19 16 8 8 14 18 20 18 9 3 6 10 10 11 15 17 17 16 13 9 1 355 352 339 306 274 246 238 237 220 212 214 216 215 212 204 198 194 192 188 182 173 169 178 188 187 185 189 191 190 189 184 180 180 181 183 183 182 181 183 185 192 200 202 196 191 188 184 184 184 183 185 180 174 179 187 193 199 204 215 226 228 228 230 230
17 16 11 8 14 18 17 16 12 5 2 4 6 8 12 16 17 19 18 13 7 3 2 352 333 317 302 282 243 204 206 216 221 217 207 195 190 189 189 187 180 173 173 181 189 191 190 193 191 186 184 183 182 182 181 182 184 187 190 193 197 203 205 204 203 200 195 187 182 182 182 178 167 165 176 196 203 216 224 222 223 226 228 231 232
17 14 9 4 10 13 11 11 13 8 2 1 3 5 9 12 15 19 20 15 11 11 9 354 342 334 304 273 241 202 201 210 213 207 195 189 190 190 189 188 180 173 175 184 189 191 191 189 184 178 177 180 182 183 183 185 190 194 200 207 211 210 206 208 211 209 203 194 187 184 179 167 160 167 177 187 196 213 224 222 219 220 223 229 232
16 12 7 4 7 7 7 9 10 8 4 2 3 5 8 11 13 16 19 16 9 9 8 349 338 336 306 269 253 212 200 205 204 196 190 192 195 195 192 191 185 176 177 185 189 189 188 183 177 173 172 173 176 180 182 183 186 192 200 207 207 202 202 207 207 201 197 193 186 182 173 159 157 165 165 160 162 176 186 186 194 206 215 224 228
11 4 0 7 10 3 3 7 10 9 5 4 6 7 10 14 14 14 17 18 10 4 1 342 326 324 315 289 249 205 198 201 196 185 182 184 189 192 190 190 189 181 179 186 189 185 181 178 176 173 170 169 172 177 181 182 184 186 186 189 189 188 190 190 187 184 181 175 170 166 158 147 144 143 137 132 131 135 141 135 124 158 199 212 217
6 358 354 4 9 3 1 3 7 9 7 7 7 7 10 14 16 16 18 20 16 6 355 330 302 301 302 289 219 191 189 189 183 177 177 181 184 185 183 186 190 185 182 186 186 182 179 178 177 175 170 170 173 177 181 186 192 186 181 187 186 181 178 174 164 152 147 145 142 138 135 132 130 127 121 116 112 112 121 127 116 110 133 168 199
1 353 350 357 0 3 5 5 8 8 6 6 6 6 10 13 16 18 18 21 26 24 15 1 311 273 261 243 209 193 187 184 179 174 172 179 182 179 180 189 193 187 185 187 186 185 185 182 179 177 174 174 178 181 185 191 193 186 180 177 171 169 169 164 151 140 135 133 130 125 121 121 119 115 110 106 104 104 108 118 123 123 125 130 161
356 352 353 350 352 4 9 7 7 7 7 7 7 7 12 14 16 18 18 23 35 42 42 36 23 315 205 203 204 197 190 184 180 177 179 185 186 185 189 193 191 187 187 189 191 191 191 187 182 179 178 180 184 188 190 189 185 181 178 168 160 160 160 155 146 140 134 129 124 118 111 109 106 101 97 93 88 87 93 106 125 148 167 181 189
356 355 356 351 349 357 3 4 4 8 12 13 12 14 16 14 15 18 21 29 38 45 49 47 40 37 158 184 189 193 192 184 179 181 189 189 185 188 194 191 185 185 188 189 190 191 189 186 183 180 179 182 186 188 187 180 171 170 170 164 160 158 153 146 140 136 132 126 117 111 106 105 101 94 93 92 87 81 80 92 112 141 167 180 191
360 356 356 354 351 350 355 2 5 8 12 14 17 21 19 17 19 24 30 35 39 44 48 50 48 45 50 112 159 177 185 182 179 184 191 190 182 180 184 183 177 178 180 180 179 179 177 177 177 176 173 171 172 173 171 165 160 159 158 155 153 150 142 135 130 126 123 119 110 101 99 101 97 91 84 79 80 80 81 89 105 139 169 174 175
357 354 354 355 360 0 4 11 12 10 14 18 21 25 24 25 30 35 38 39 39 42 45 47 51 54 54 67 108 141 157 164 168 172 180 184 178 167 167 170 170 168 166 164 163 162 160 160 162 162 157 152 152 153 155 157 156 154 152 148 143 138 130 125 120 115 113 113 109 101 96 90 81 66 29 357 350 347 9 51 93 172 199 201 187
352 351 358 4 9 9 10 16 17 17 20 22 21 23 26 31 36 39 41 42 43 42 42 44 50 56 61 67 84 105 123 136 144 150 155 158 157 153 150 152 156 157 155 151 149 148 147 144 143 144 142 138 135 137 142 148 152 150 147 143 139 135 130 126 122 119 121 127 124 113 103 99 87 43 347 320 309 300 299 315 312 239 222 219 208
352 353 1 11 18 17 17 22 24 25 26 24 22 24 29 33 38 40 41 44 47 45 42 43 46 52 61 70 81 94 105 113 122 133 138 135 136 141 139 133 134 138 140 139 137 135 134 133 132 133 134 131 128 129 132 136 142 146 146 143 138 131 126 126 129 134 141 144 138 135 143 156 168 178 248 292 297 292 282 278 265 240 234 236 218
10 14 20 27 32 32 32 32 31 30 28 26 28 33 36 37 39 41 40 42 44 42 40 44 45 48 57 67 76 87 94 99 104 111 118 120 122 127 131 127 120 120 121 121 122 120 118 118 119 120 123 125 126 130 133 135 138 145 148 147 141 132 127 130 139 143 147 149 148 155 169 173 177 177 152 270 293 286 278 265 253 252 261 269 264
30 30 34 36 37 37 38 38 36 32 30 32 35 39 42 41 39 39 41 41 41 38 37 41 46 50 57 64 73 83 88 91 93 97 107 117 119 118 122 124 119 115 112 110 111 112 109 106 104 103 106 111 114 123 137 143 145 149 151 149 147 144 143 149 155 149 146 151 155 160 169 170 170 163 82 54 26 68 105 99 77 50 360 324 313
49 42 40 41 43 43 41 39 34 29 30 37 42 44 46 45 41 40 41 40 40 40 40 43 48 55 63 66 71 81 88 90 92 93 100 110 115 116 119 120 115 111 109 105 104 105 103 101 99 99 102 105 107 116 137 150 154 162 164 159 157 154 149 150 153 147 141 144 146 145 143 139 130 109 86 73 68 69 70 68 62 52 39 18 2
54 50 49 52 53 49 42 34 28 28 33 40 44 47 47 46 44 43 40 39 42 47 50 53 55 59 66 70 72 78 84 90 97 103 104 108 114 118 119 117 114 113 113 111 108 106 104 103 104 107 109 108 111 118 130 144 153 158 163 167 168 161 152 147 146 142 138 136 132 129 126 120 114 105 95 86 80 72 62 56 50 49 51 43 28
57 57 56 58 59 57 49 38 31 35 40 41 43 45 45 44 46 44 40 40 48 54 56 58 60 61 64 68 70 75 82 88 98 112 116 113 116 120 121 120 120 119 116 112 111 110 107 104 106 109 108 105 105 108 111 123 145 154 161 173 172 160 152 147 141 136 136 132 127 126 123 117 111 105 97 88 80 73 68 66 64 63 63 56 46
66 65 61 59 60 60 57 47 40 41 43 41 42 44 43 43 43 42 42 46 52 56 57 59 62 63 65 67 69 73 80 86 94 109 115 113 114 118 121 123 124 121 115 110 109 111 109 106 105 106 103 99 97 97 100 106 119 137 150 162 160 150 148 150 144 137 135 134 130 129 123 116 111 106 101 97 90 85 81 77 74 73 68 63 59
68 65 62 61 58 55 54 51 46 46 46 44 43 43 44 43 39 38 44 49 50 55 59 61 64 66 67 69 72 75 81 85 90 100 107 108 108 109 111 116 120 119 114 108 106 108 109 106 102 101 98 96 95 97 101 104 107 115 127 139 145 144 145 152 148 142 141 141 140 139 130 123 125 127 127 127 122 116 105 93 86 81 75 69 64
72 69 70 70 65 57 54 51 48 47 47 45 44 44 46 46 40 36 43 49 49 53 58 61 64 67 68 71 74 78 83 87 91 96 100 101 103 102 101 104 109 111 109 104 99 100 101 99 97 97 96 97 99 99 100 103 105 113 122 130 139 144 147 153 153 149 148 147 146 143 136 135 139 140 138 136 129 119 109 101 94 88 81 74 68
74 71 71 71 68 62 56 51 49 49 48 46 46 46 47 47 44 41 46 53 53 55 60 64 65 67 70 73 76 79 83 87 91 95 97 98 99 101 99 97 99 101 101 101 99 98 97 95 95 95 93 92 93 94 96 98 100 107 116 121 128 135 140 146 149 145 142 140 138 135 130 129 130 130 130 128 122 115 110 105 98 91 83 74 67
71 68 68 68 65 61 56 54 53 52 51 49 49 51 50 50 51 52 55 58 58 59 63 67 68 69 72 75 77 79 82 85 88 91 95 97 99 101 100 100 99 99 99 100 100 100 98 97 96 96 96 94 94 95 96 95 95 99 105 106 107 111 112 117 121 122 123 125 126 126 125 123 121 121 122 120 117 115 114 109 100 91 83 76 68
69 72 73 70 64 60 58 58 56 54 54 53 54 58 58 57 59 64 63 61 61 62 64 65 68 71 74 76 77 79 81 84 86 88 91 93 97 102 102 99 98 99 99 100 100 101 103 103 104 105 108 111 112 113 113 112 111 108 102 100 106 114 119 122 122 122 123 124 123 122 121 119 118 118 118 116 115 116 115 109 102 95 89 83 74
72 77 76 70 67 66 66 63 58 56 57 56 56 59 59 56 56 63 67 67 67 68 69 69 69 71 73 75 78 79 80 82 83 85 87 86 89 95 97 94 94 96 98 100 101 102 104 106 109 115 121 125 124 125 125 123 121 117 113 119 128 130 131 131 128 126 126 125 124 122 119 117 117 116 114 113 113 112 107 103 103 102 97 90 79
70 72 70 68 71 74 72 66 62 62 62 60 59 59 60 60 61 63 67 72 74 75 75 74 73 73 73 75 77 80 81 82 82 84 84 83 84 88 91 91 91 91 93 97 101 103 105 107 111 113 115 115 115 117 119 118 116 115 117 125 129 128 129 128 124 124 126 125 122 118 114 113 113 111 108 105 103 102 101 97 96 98 98 92 81
84 75 72 73 76 78 76 71 67 65 62 59 58 57 57 66 75 80 85 89 87 82 79 78 77 76 76 77 78 81 83 83 84 86 86 85 84 84 86 88 88 88 89 91 92 94 95 95 92 86 81 80 83 95 108 113 115 115 116 119 119 120 122 122 123 126 127 122 116 109 103 101 102 100 96 91 86 86 88 87 87 90 92 88 80
109 90 81 77 76 78 79 75 71 67 62 58 56 54 54 63 77 88 98 105 103 96 90 86 81 79 80 80 80 82 84 84 86 88 89 89 88 85 84 86 88 89 88 85 84 84 82 78 72 65 60 58 61 85 112 122 122 120 118 117 117 117 118 118 123 130 122 111 107 103 96 92 91 88 82 77 74 73 75 77 81 83 83 83 84